Date String (YYYY-MM-DD hh:mm:ss) UTC,Instrument flags,absolute air pressure of the measurement (hPa),sample flow rate (lpm),inlet stack bypass flow (lpm),air temperature of the measurement (°C),ambient temperature measured by the external sensor (°C),aerosol sample conditioner tube jacket temperature (°C),OPC LED temperature (°C),internal box temperature (°C),relative humidity of the measurement (%),span deviation,mass concentration of particles derived from Lorenz-Mie calculation of OPC scattering (μg/m³),mass concentration of particles derived from Lorenz-Mie calculation of OPC scattering (μg/m³),mass concentration of particles derived from Lorenz-Mie calculation of OPC scattering (μg/m³)
DateTimeUTC,F1_M11,P_M11,Q1_M11,Q2_M11,T1_M11,T2_M11,T3_M11,T4_M11,T5_M11,U1_M11,ZSPAN_M11,X0_M11,X2_M11,X1_M11
2023-11-09 15:00:00,SystemResetWarning,0834.9,5.00,000.00,020.7,020.0,000.0,029.0,022.2,15.2,0000.0,0006.04,0003.43,0003.05
2023-11-09 15:01:00,SystemResetWarning,0835.0,5.01,000.00,020.7,020.1,000.0,029.0,022.2,14.1,0000.0,0005.85,0003.46,0003.04
2023-11-09 15:02:00,SystemResetWarning,0835.0,5.00,000.00,020.7,020.1,000.0,029.0,022.2,13.9,0000.0,0005.62,0003.44,0003.05
2023-11-09 15:03:00,SystemResetWarning,0835.0,4.99,000.00,020.8,020.1,000.0,029.0,022.2,13.9,0000.0,0005.66,0003.46,0003.05
2023-11-09 15:04:00,SystemResetWarning,0835.0,4.99,000.00,020.8,020.1,000.0,029.0,022.2,13.6,0000.0,0005.76,0003.47,0003.04
2023-11-09 15:05:00,SystemResetWarning,0835.1,5.00,000.00,020.8,020.1,000.0,029.0,022.3,14.9,0000.0,0005.92,0003.49,0003.05
2023-11-09 15:06:00,SystemResetWarning,0835.1,5.01,000.00,020.8,020.1,000.0,029.0,022.3,16.5,0000.0,0005.88,0003.44,0003.03
2023-11-09 15:07:00,SystemResetWarning,0835.1,5.01,000.00,020.8,020.2,000.0,029.0,022.3,16.9,0000.0,0005.97,0003.40,0003.01
2023-11-09 15:08:00,SystemResetWarning,0835.0,5.00,000.00,020.8,020.2,000.0,029.1,022.3,16.1,0000.0,0006.05,0003.41,0003.01
2023-11-09 15:09:00,SystemResetWarning,0835.0,4.98,000.00,020.8,020.2,000.0,029.1,022.3,15.3,0000.0,0006.26,0003.45,0003.04
2023-11-09 15:10:00,SystemResetWarning,0835.1,5.00,000.00,020.8,020.2,000.0,029.1,022.3,15.9,0000.0,0006.27,0003.47,0003.07
2023-11-09 15:11:00,SystemResetWarning,0835.1,5.02,000.00,020.9,020.2,000.0,029.1,022.4,17.0,0000.0,0006.39,0003.50,0003.10
2023-11-09 15:12:00,SystemResetWarning,0835.1,4.99,000.00,020.9,020.2,000.0,029.1,022.4,17.1,0000.0,0006.27,0003.48,0003.10
2023-11-09 15:13:00,SystemResetWarning,0835.1,4.99,000.00,020.9,020.2,000.0,029.1,022.3,17.2,0000.0,0006.17,0003.48,0003.11
2023-11-09 15:14:00,SystemResetWarning,0835.2,5.00,000.00,020.9,020.2,000.0,029.1,022.3,17.1,0000.0,0006.22,0003.51,0003.12
2023-11-09 15:15:00,SystemResetWarning,0835.2,5.00,000.00,020.9,020.2,000.0,029.1,022.4,17.0,0000.0,0006.29,0003.54,0003.15
2023-11-09 15:16:00,SystemResetWarning,0835.1,5.01,000.00,020.9,020.2,000.0,029.2,022.4,17.1,0000.0,0006.39,0003.58,0003.17
2023-11-09 15:17:00,SystemResetWarning,0835.2,5.01,000.00,020.9,020.2,000.0,029.2,022.4,17.0,0000.0,0006.56,0003.60,0003.20
2023-11-09 15:18:00,SystemResetWarning,0835.2,4.99,000.00,020.9,020.3,000.0,029.2,022.4,16.9,0000.0,0007.15,0003.65,0003.23
2023-11-09 15:19:00,SystemResetWarning,0835.1,5.00,000.00,020.9,020.3,000.0,029.2,022.4,17.2,0000.0,0007.22,0003.67,0003.26
2023-11-09 15:20:00,SystemResetWarning,0835.1,5.00,000.00,020.9,020.3,000.0,029.2,022.4,16.9,0000.0,0007.14,0003.67,0003.27
2023-11-09 15:21:00,SystemResetWarning,0835.1,5.00,000.00,020.9,020.3,000.0,029.2,022.4,16.5,0000.0,0007.07,0003.66,0003.27
2023-11-09 15:22:00,SystemResetWarning,0835.2,5.00,000.00,021.0,020.2,000.0,029.2,022.4,16.8,0000.0,0006.96,0003.64,0003.26
2023-11-09 15:23:00,SystemResetWarning,0835.3,5.00,000.00,021.0,020.2,000.0,029.2,022.4,17.2,0000.0,0006.80,0003.63,0003.27
2023-11-09 15:24:00,SystemResetWarning,0835.3,5.00,000.00,021.0,020.3,000.0,029.2,022.5,17.3,0000.0,0006.81,0003.66,0003.28
2023-11-09 15:25:00,SystemResetWarning,0835.3,5.01,000.00,021.0,020.3,000.0,029.2,022.5,17.7,0000.0,0007.60,0003.63,0003.27
2023-11-09 15:26:00,SystemResetWarning,0835.3,5.01,000.00,021.0,020.3,000.0,029.2,022.5,17.9,0000.0,0007.70,0003.59,0003.25
2023-11-09 15:27:00,SystemResetWarning,0835.2,5.01,000.00,021.0,020.3,000.0,029.3,022.5,17.2,0000.0,0007.93,0003.55,0003.23
2023-11-09 15:28:00,SystemResetWarning,0835.2,4.99,000.00,021.0,020.4,000.0,029.3,022.5,16.7,0000.0,0008.19,0003.54,0003.23
2023-11-09 15:29:00,SystemResetWarning,0835.3,4.99,000.00,021.0,020.4,000.0,029.3,022.5,17.7,0000.0,0007.74,0003.52,0003.21
2023-11-09 15:30:00,SystemResetWarning,0835.3,5.01,000.00,021.1,020.4,000.0,029.3,022.6,18.1,0000.0,0008.14,0003.51,0003.19
2023-11-09 15:31:00,SystemResetWarning,0835.3,5.01,000.00,021.1,020.4,000.0,029.3,022.6,18.5,0000.0,0008.25,0003.47,0003.16
2023-11-09 15:32:00,SystemResetWarning,0835.3,5.00,000.00,021.1,020.5,000.0,029.3,022.6,18.2,0000.0,0008.18,0003.43,0003.14
2023-11-09 15:33:00,SystemResetWarning,0835.3,4.99,000.00,021.1,020.5,000.0,029.3,022.6,18.2,0000.0,0008.15,0003.41,0003.13
2023-11-09 15:34:00,SystemResetWarning,0835.3,4.99,000.00,021.1,020.5,000.0,029.3,022.6,17.7,0000.0,0008.42,0003.44,0003.13
2023-11-09 15:35:00,SystemResetWarning,0835.2,5.00,000.00,021.1,020.5,000.0,029.4,022.6,18.1,0000.0,0009.59,0003.43,0003.14
2023-11-09 15:36:00,SystemResetWarning,0835.2,5.00,000.00,021.2,020.5,000.0,029.4,022.7,18.0,0000.0,0009.55,0003.46,0003.15
2023-11-09 15:37:00,SystemResetWarning,0835.2,5.01,000.00,021.2,020.5,000.0,029.4,022.7,17.6,0000.0,0009.49,0003.49,0003.16
2023-11-09 15:38:00,SystemResetWarning,0835.3,5.01,000.00,021.2,020.6,000.0,029.4,022.7,16.4,0000.0,0009.81,0003.50,0003.18
2023-11-09 15:39:00,SystemResetWarning,0835.2,5.00,000.00,021.2,020.6,000.0,029.4,022.7,17.2,0000.0,0009.61,0003.54,0003.18
2023-11-09 15:40:00,SystemResetWarning,0835.3,5.00,000.00,021.2,020.6,000.0,029.4,022.7,18.0,0000.0,0009.96,0003.55,0003.18
2023-11-09 15:41:00,SystemResetWarning,0835.3,4.99,000.00,021.2,020.6,000.0,029.4,022.8,18.2,0000.0,0009.49,0003.52,0003.18
2023-11-09 15:42:00,SystemResetWarning,0835.4,4.99,000.00,021.2,020.6,000.0,029.5,022.8,18.0,0000.0,0009.52,0003.51,0003.18
2023-11-09 15:43:00,SystemResetWarning,0835.3,5.01,000.00,021.3,020.6,000.0,029.5,022.8,17.7,0000.0,0009.91,0003.53,0003.19
2023-11-09 15:44:00,SystemResetWarning,0835.3,5.01,000.00,021.3,020.7,000.0,029.5,022.8,16.4,0000.0,0009.95,0003.56,0003.21
2023-11-09 15:45:00,SystemResetWarning,0835.3,5.00,000.00,021.3,020.7,000.0,029.5,022.8,15.5,0000.0,0010.38,0003.55,0003.20
2023-11-09 15:46:00,SystemResetWarning,0835.3,4.98,000.00,021.3,020.7,000.0,029.5,022.8,15.3,0000.0,0009.42,0003.56,0003.20
2023-11-09 15:47:00,SystemResetWarning,0835.3,5.00,000.00,021.3,020.7,000.0,029.5,022.9,14.8,0000.0,0009.00,0003.55,0003.17
2023-11-09 15:48:00,SystemResetWarning,0835.3,5.00,000.00,021.3,020.7,000.0,029.5,022.9,14.9,0000.0,0008.91,0003.52,0003.14
2023-11-09 15:49:00,SystemResetWarning,0835.3,5.00,000.00,021.4,020.8,000.0,029.6,022.9,14.8,0000.0,0008.24,0003.47,0003.08
2023-11-09 15:50:00,SystemResetWarning,0835.3,5.00,000.00,021.4,020.8,000.0,029.6,022.9,14.0,0000.0,0008.71,0003.40,0003.02
2023-11-09 15:51:00,SystemResetWarning,0835.3,5.00,000.00,021.4,020.8,000.0,029.6,023.0,14.0,0000.0,0008.19,0003.34,0002.95
2023-11-09 15:52:00,SystemResetWarning,0835.3,5.00,000.00,021.4,020.8,000.0,029.6,023.0,14.1,0000.0,0008.19,0003.32,0002.89
2023-11-09 15:53:00,SystemResetWarning,0835.4,5.00,000.00,021.4,020.8,000.0,029.6,023.0,14.0,0000.0,0007.80,0003.28,0002.83
2023-11-09 15:54:00,SystemResetWarning,0835.4,5.00,000.00,021.4,020.9,000.0,029.6,023.0,14.7,0000.0,0007.40,0003.22,0002.74
2023-11-09 15:55:00,SystemResetWarning,0835.4,5.00,000.00,021.5,020.9,000.0,029.7,023.0,14.9,0000.0,0007.34,0003.14,0002.64
2023-11-09 15:56:00,SystemResetWarning,0835.4,5.00,000.00,021.5,020.9,000.0,029.7,023.1,15.8,0000.0,0006.24,0003.07,0002.55
2023-11-09 15:57:00,SystemResetWarning,0835.5,5.00,000.00,021.5,020.9,000.0,029.7,023.1,16.1,0000.0,0005.89,0002.98,0002.50
2023-11-09 15:58:00,SystemResetWarning,0835.4,5.00,000.00,021.5,020.9,000.0,029.7,023.1,15.7,0000.0,0005.53,0002.94,0002.48
2023-11-09 15:59:00,SystemResetWarning,0835.5,5.00,000.00,021.5,021.0,000.0,029.7,023.1,15.7,0000.0,0005.72,0002.98,0002.52
